Regional Weather Roundup
Issued by NWS

Home | Current Version | Previous Version | Graphics & Text | Print | Product List | Glossary Off
Versions: 1 2 3 4 5 6 7 8 9 10 11 12 13 14 15 16 17 18 19 20 21 22 23 24 25 26 27 28 29 30 31 32 33 34 35 36 37 38 39 40 41 42 43 44 45 46 47 48 49 50

470
ASUS43 KLSX 251007
RWRMO

WEATHER SUMMARY FOR MISSOURI
NATIONAL WEATHER SERVICE SPRINGFIELD MO
500 AM CDT MON JUL 25 2016

NOTE: "FAIR" INDICATES FEW OR NO CLOUDS BELOW 12,000 FEET WITH NO
       SIGNIFICANT WEATHER AND/OR OBSTRUCTIONS TO VISIBILITY.
       CURRENT SKY AND/OR WEATHER CONDITIONS ARE NOT AVAILABLE FOR
       CHILLICOTHE AND FARMINGTON.

MOZ001>031-035>038-043-044-053-054-251100-
...NORTHERN AND WESTERN MISSOURI...

CITY           SKY/WX    TMP DP  RH WIND       PRES   REMARKS
KANSAS CTY INT CLOUDY    74  67  78 NE8       30.03S
KANSAS C DTWN  CLOUDY    76  67  73 NE8       30.01R
LEE`S SUMMIT   CLOUDY    73  71  93 E5        30.03S
ST JOSEPH      CLOUDY    71  66  84 N3        30.04R
CHILLICOTHE      N/A     74  68  81 NE3       30.04R
KIRKSVILLE     CLOUDY    73  66  78 NE7       30.04S

$$
MOZ066>068-077>081-088>096-101>105-251100-
...SOUTHWEST MISSOURI...

CITY           SKY/WX    TMP DP  RH WIND       PRES   REMARKS
SPRINGFIELD    CLOUDY    79  73  82 S6        29.98S
JOPLIN         CLOUDY    80  72  76 NW12      30.00R
BRANSON        MOCLDY    73  70  88 CALM      30.02R

$$
MOZ032>034-039>042-045>050-055>058-069>072-251100-
...CENTRAL MISSOURI...

CITY           SKY/WX    TMP DP  RH WIND       PRES   REMARKS
COLUMBIA       CLOUDY    73  72  96 N7        30.01R
JEFFERSON CITY CLOUDY    73  72  96 E3        30.00R
ROLLA          TSTM      71  70  96 E14       30.02R
SEDALIA        CLOUDY    74  70  87 SE5       30.01R
WHITEMAN AFB   LGT RAIN  72  72 100 N7        30.03R
OSAGE BEACH    CLOUDY    73  71  93 E3        29.99R

$$
MOZ051-052-059>065-251100-
...EAST CENTRAL MISSOURI...

CITY           SKY/WX    TMP DP  RH WIND       PRES   REMARKS
ST LOUIS INTL  TSTM      74  71  91 E9        30.02F
SPIRIT OF STL  LGT RAIN  74  73  97 CALM      30.00F
ST CHARLES     LGT RAIN  73  73 100 NE7       30.00F

$$
MOZ072>076-082>087-097>100-106>115-251100-
...SOUTH CENTRAL AND SOUTHEAST MISSOURI...

CITY           SKY/WX    TMP DP  RH WIND       PRES   REMARKS
CAPE GIRARDEAU PTCLDY    77  74  90 CALM      29.98R
FARMINGTON     CLOUDY    75  71  87 CALM      30.00F
POPLAR BLUFF   CLEAR     77  75  93 CALM      29.97R
WEST PLAINS    PTCLDY    77  73  87 CALM      30.02R

$$



USA.gov is the U.S. government's official web portal to all federal, state and local government web resources and services.